DW0664 Weather Reports


Display with metric or nautical units.
time (UTC)temp
F
wind
direction
speed
MPH
gust
MPH
rain 1hr
in
rain 24hr
in
rain mn
in
humidity
%
barometer
mb
20260502220052 77 72 1.0 1.0 0.00 0.00 0.00 46 1020.9
20260502215549 76 59 0.0 0.0 0.00 0.00 0.00 48 1021.0
20260502215046 75 51 2.0 2.0 0.00 0.00 0.00 45 1021.0
20260502214543 75 63 0.0 1.0 0.00 0.00 0.00 51 1021.0
20260502214041 76 77 0.0 1.0 0.00 0.00 0.00 48 1021.0
20260502213537 75 84 1.0 1.0 0.00 0.00 0.00 49 1021.2
20260502213035 75 68 0.0 2.0 0.00 0.00 0.00 46 1021.3
20260502212534 76 47 1.0 2.0 0.00 0.00 0.00 48 1021.2
20260502212031 76 59 1.0 1.0 0.00 0.00 0.00 44 1021.2
20260502211526 77 52 1.0 2.0 0.00 0.00 0.00 46 1021.2
20260502211024 77 64 1.0 3.0 0.00 0.00 0.00 48 1021.4
20260502210521 78 41 1.0 1.0 0.00 0.00 0.00 47 1021.4
20260502210018 77 65 0.0 1.0 0.00 0.00 0.00 46 1021.3
20260502205514 78 61 0.0 1.0 0.00 0.00 0.00 44 1021.5
20260502205011 78 63 0.0 1.0 0.00 0.00 0.00 48 1021.3
20260502204508 77 68 0.0 2.0 0.00 0.00 0.00 47 1021.4
20260502204006 77 54 0.0 2.0 0.00 0.00 0.00 45 1021.5
20260502203503 77 63 0.0 1.0 0.00 0.00 0.00 48 1021.6
20260502203000 76 62 0.0 1.0 0.00 0.00 0.00 48 1021.5
20260502202456 77 65 1.0 3.0 0.00 0.00 0.00 46 1021.5
20260502201955 77 76 2.0 2.0 0.00 0.00 0.00 48 1021.6
20260502201450 77 70 1.0 3.0 0.00 0.00 0.00 46 1021.5
20260502200947 77 53 1.0 1.0 0.00 0.00 0.00 50 1021.6
20260502200443 76 71 1.0 3.0 0.00 0.00 0.00 50 1021.6
20260502195940 77 60 1.0 3.0 0.00 0.00 0.00 47 1021.9
20260502195437 77 103 1.0 2.0 0.00 0.00 0.00 49 1021.8
20260502194934 76 70 2.0 3.0 0.00 0.00 0.00 50 1021.9
20260502194431 76 62 0.0 2.0 0.00 0.00 0.00 50 1021.8
20260502193926 76 60 1.0 2.0 0.00 0.00 0.00 49 1022.0
20260502193424 77 65 1.0 2.0 0.00 0.00 0.00 51 1022.0
20260502192919 76 64 0.0 2.0 0.00 0.00 0.00 53 1022.1
20260502192416 76 122 1.0 2.0 0.00 0.00 0.00 50 1022.3
20260502191913 76 59 2.0 6.0 0.00 0.00 0.00 52 1022.2
20260502191411 75 34 1.0 3.0 0.00 0.00 0.00 53 1022.1
20260502190909 75 67 0.0 2.0 0.00 0.00 0.00 51 1022.4
20260502190406 75 65 0.0 2.0 0.00 0.00 0.00 51 1022.4
20260502185902 74 45 0.0 2.0 0.00 0.00 0.00 55 1022.2
20260502185357 73 49 1.0 2.0 0.00 0.00 0.00 58 1022.3
20260502184855 73 59 1.0 3.0 0.00 0.00 0.00 55 1022.6
20260502184350 74 16 1.0 1.0 0.00 0.00 0.00 57 1022.6
20260502183847 74 347 1.0 2.0 0.00 0.00 0.00 57 1022.7
20260502183343 75 55 0.0 3.0 0.00 0.00 0.00 54 1022.7
20260502182838 76 81 0.0 1.0 0.00 0.00 0.00 56 1022.7
20260502182334 75 88 0.0 6.0 0.00 0.00 0.00 53 1022.8
20260502181830 75 55 0.0 1.0 0.00 0.00 0.00 58 1023.1
20260502181330 74 55 0.0 1.0 0.00 0.00 0.00 58 1023.2
20260502180827 74 34 1.0 1.0 0.00 0.00 0.00 56 1022.9
20260502180324 74 68 0.0 1.0 0.00 0.00 0.00 58 1023.1
20260502170243 71 83 1.0 3.0 0.00 0.00 0.00 62 1023.6
20260502164225 69 59 1.0 4.0 0.00 0.00 0.00 61 1023.8
20260502163720 69 54 2.0 2.0 0.00 0.00 0.00 60 1023.7
20260502163217 69 75 1.0 4.0 0.00 0.00 0.00 62 1023.8
20260502162714 69 68 1.0 3.0 0.00 0.00 0.00 62 1023.5
20260502162211 69 58 1.0 4.0 0.00 0.00 0.00 60 1023.5
20260502161708 69 61 0.0 6.0 0.00 0.00 0.00 60 1023.5
20260502161204 68 50 0.0 1.0 0.00 0.00 0.00 65 1023.5
20260502160702 68 33 1.0 2.0 0.00 0.00 0.00 64 1023.5
20260502160156 68 59 1.0 3.0 0.00 0.00 0.00 65 1023.6
20260502152114 66 99 1.0 2.0 0.00 0.00 0.00 71 1023.6
20260502151611 66 44 1.0 3.0 0.00 0.00 0.00 72 1023.4
20260502151109 66 122 2.0 2.0 0.00 0.00 0.00 72 1023.6
20260502150606 65 41 1.0 2.0 0.00 0.00 0.00 73 1023.5
20260502130451 53 62 0.0 0.0 0.00 0.00 0.00 99 1022.3
20260502123434 50 63 0.0 0.0 0.00 0.00 0.00 99 1021.8
20260502122926 50 63 0.0 0.0 0.00 0.00 0.00 99 1021.7
20260502122422 50 64 0.0 0.0 0.00 0.00 0.00 99 1021.5
20260502121920 50 64 0.0 0.0 0.00 0.00 0.00 99 1021.5
20260502121417 49 64 0.0 0.0 0.00 0.00 0.00 99 1021.5
20260502120915 49 64 0.0 0.0 0.00 0.00 0.00 99 1021.3
20260502120411 49 63 0.0 0.0 0.00 0.00 0.00 99 1021.1
20260502115908 49 64 0.0 0.0 0.00 0.00 0.00 99 1021.1
20260502115405 49 67 0.0 0.0 0.00 0.00 0.00 99 1021.0
20260502114901 49 66 0.0 0.0 0.00 0.00 0.00 99 1021.1
20260502114358 49 65 0.0 0.0 0.00 0.00 0.00 99 1020.9
20260502113855 49 66 0.0 0.0 0.00 0.00 0.00 99 1021.0
20260502113353 49 65 0.0 0.0 0.00 0.00 0.00 99 1020.9
20260502112851 49 64 0.0 0.0 0.00 0.00 0.00 99 1020.8
20260502112348 49 66 0.0 0.0 0.00 0.00 0.00 99 1020.7
20260502111845 49 65 0.0 0.0 0.00 0.00 0.00 99 1020.6
20260502111343 49 65 0.0 0.0 0.00 0.00 0.00 99 1020.6
20260502110840 49 64 0.0 0.0 0.00 0.00 0.00 99 1020.7
20260502110338 49 64 0.0 0.0 0.00 0.00 0.00 99 1020.5
20260502105835 49 67 0.0 0.0 0.00 0.00 0.00 99 1020.5
20260502105332 49 67 0.0 0.0 0.00 0.00 0.00 99 1020.4
20260502104829 50 68 0.0 0.0 0.00 0.00 0.00 99 1020.4
20260502104327 50 86 0.0 0.0 0.00 0.00 0.00 99 1020.2
20260502103824 50 66 0.0 0.0 0.00 0.00 0.00 99 1020.2
20260502103321 50 69 0.0 0.0 0.00 0.00 0.00 99 1020.0
20260502102819 50 62 0.0 0.0 0.00 0.00 0.00 99 1020.1
20260502102315 50 67 0.0 0.0 0.00 0.00 0.00 99 1020.1
20260502101813 50 63 0.0 0.0 0.00 0.00 0.00 99 1019.9
20260502101311 50 64 0.0 0.0 0.00 0.00 0.00 99 1020.0
20260502100809 50 64 0.0 0.0 0.00 0.00 0.00 99 1020.3
20260502100308 50 64 0.0 0.0 0.00 0.00 0.00 99 1019.9
20260502091241 50 58 0.0 1.0 0.00 0.00 0.00 99 1019.8
20260502090738 50 63 0.0 0.0 0.00 0.00 0.00 99 1019.7
20260502090235 50 68 0.0 0.0 0.00 0.00 0.00 99 1019.4
20260502071135 50 62 0.0 0.0 0.00 0.00 0.00 99 1019.2
20260502070633 50 63 0.0 0.0 0.00 0.00 0.00 99 1019.2
20260502070131 51 63 0.0 0.0 0.00 0.00 0.00 99 1019.2
20260502065629 51 62 0.0 0.0 0.00 0.00 0.00 99 1019.1
20260502065126 51 63 0.0 0.0 0.00 0.00 0.00 99 1019.4
20260502064625 51 62 0.0 0.0 0.00 0.00 0.00 99 1019.2
20260502064122 51 61 0.0 1.0 0.00 0.00 0.00 99 1019.3
20260502063619 51 63 0.0 0.0 0.00 0.00 0.00 99 1019.4
20260502063117 51 63 0.0 0.0 0.00 0.00 0.00 99 1019.4
20260502062614 51 64 0.0 0.0 0.00 0.00 0.00 99 1019.4
20260502062112 52 63 0.0 0.0 0.00 0.00 0.00 99 1019.3
20260502061610 52 61 0.0 0.0 0.00 0.00 0.00 99 1019.4
20260502061107 52 60 0.0 0.0 0.00 0.00 0.00 99 1019.0
20260502060602 52 58 0.0 1.0 0.00 0.00 0.00 99 1019.2
20260502060059 52 63 0.0 0.0 0.00 0.00 0.00 99 1019.2
20260502055556 52 66 0.0 0.0 0.00 0.00 0.00 99 1019.3
20260502055055 52 59 0.0 0.0 0.00 0.00 0.00 99 1019.3
20260502054553 52 66 0.0 0.0 0.00 0.00 0.00 99 1019.2
20260502054049 52 61 0.0 1.0 0.00 0.00 0.00 99 1019.1
20260502053547 52 71 0.0 1.0 0.00 0.00 0.00 99 1019.1
20260502053044 52 52 0.0 0.0 0.00 0.00 0.00 99 1019.2
20260502052543 52 39 0.0 1.0 0.00 0.00 0.00 99 1019.3
20260502052041 52 60 0.0 1.0 0.00 0.00 0.00 99 1019.2
20260502051538 52 58 0.0 0.0 0.00 0.00 0.00 99 1019.2
20260502051036 52 61 0.0 1.0 0.00 0.00 0.00 99 1019.3
20260502050532 52 65 0.0 2.0 0.00 0.00 0.00 99 1019.2
20260502050029 52 49 0.0 1.0 0.00 1.57 1.57 99 1019.0
20260502045526 52 72 0.0 1.0 0.00 1.57 1.57 99 1018.9
20260502045023 51 63 0.0 1.0 0.00 1.57 1.57 99 1019.0
20260502044519 51 63 0.0 0.0 0.00 1.57 1.57 99 1019.2
20260502044016 51 68 0.0 0.0 0.00 1.57 1.57 99 1019.0
20260502043514 51 37 1.0 2.0 0.00 1.57 1.57 99 1019.2
20260502043009 51 56 0.0 2.0 0.00 1.57 1.57 99 1018.9
20260502042505 51 59 0.0 1.0 0.00 1.57 1.57 99 1018.9
20260502042003 51 64 0.0 3.0 0.00 1.57 1.57 99 1019.0
20260502041500 51 72 0.0 2.0 0.00 1.57 1.57 99 1019.2
20260502040956 51 86 1.0 3.0 0.00 1.57 1.57 99 1019.0
20260502040453 51 90 0.0 2.0 0.00 1.57 1.57 99 1018.9
20260502035950 51 53 0.0 3.0 0.00 1.57 1.57 99 1019.1
20260502035446 51 59 2.0 3.0 0.00 1.57 1.57 99 1019.1
20260502034944 51 78 0.0 3.0 0.00 1.57 1.57 99 1019.2
20260502034442 51 43 2.0 4.0 0.00 1.57 1.57 99 1019.3
20260502033940 51 73 0.0 0.0 0.00 1.57 1.57 99 1019.1
20260502033437 51 72 0.0 1.0 0.00 1.57 1.57 99 1019.3
20260502032934 51 69 0.0 2.0 0.00 1.57 1.57 99 1019.2
20260502032430 51 63 0.0 4.0 0.00 1.57 1.57 99 1019.2
20260502031928 51 62 0.0 4.0 0.00 1.57 1.57 99 1019.2
20260502031426 51 53 1.0 2.0 0.00 1.57 1.57 99 1018.9
20260502030924 51 51 2.0 4.0 0.00 1.57 1.57 99 1019.0
20260502030422 52 107 1.0 3.0 0.00 1.57 1.57 99 1018.8
20260502025920 52 53 0.0 2.0 0.00 1.57 1.57 99 1018.7
20260502025416 52 52 2.0 3.0 0.00 1.57 1.57 99 1018.9
20260502024914 52 57 0.0 3.0 0.00 1.57 1.57 99 1018.5
20260502024412 52 44 0.0 8.0 0.00 1.57 1.57 99 1018.5
20260502023910 52 38 1.0 3.0 0.00 1.57 1.57 99 1018.4
20260502023407 53 57 0.0 3.0 0.00 1.57 1.57 99 1018.2
20260502022905 53 60 1.0 2.0 0.00 1.57 1.57 99 1018.1
20260502022401 53 37 1.0 3.0 0.00 1.57 1.57 99 1018.0
20260502021858 53 63 1.0 1.0 0.00 1.57 1.57 99 1018.0
20260502021355 53 42 1.0 4.0 0.00 1.57 1.57 99 1017.9
20260502020852 53 47 1.0 6.0 0.00 1.57 1.57 99 1017.8
20260502020350 53 62 0.0 1.0 0.00 1.57 1.57 99 1017.7
20260502015847 53 58 0.0 4.0 0.00 1.57 1.57 99 1017.7
20260502015344 53 35 0.0 1.0 0.00 1.57 1.57 99 1017.3
20260502014841 53 60 0.0 4.0 0.00 1.57 1.57 99 1017.1
20260502014338 53 54 0.0 2.0 0.00 1.57 1.57 99 1017.0
20260502013834 53 23 2.0 3.0 0.00 1.57 1.57 99 1016.9
20260502013330 53 46 0.0 1.0 0.00 1.57 1.57 99 1016.6
20260502012826 53 92 0.0 2.0 0.00 1.57 1.57 99 1016.5
20260502012325 54 72 0.0 1.0 0.00 1.57 1.57 99 1016.5
20260502011821 54 70 0.0 4.0 0.00 1.57 1.57 99 1016.7
20260502011317 54 43 0.0 1.0 0.00 1.57 1.57 99 1016.6
20260502010815 54 54 0.0 1.0 0.00 1.57 1.57 99 1016.6
20260502010311 54 43 0.0 1.0 0.00 1.57 1.57 99 1017.1
20260502005808 54 54 0.0 2.0 0.00 1.57 1.57 99 1017.1
20260502005306 54 55 0.0 3.0 0.00 1.57 1.57 99 1016.6
20260502004803 54 63 0.0 2.0 0.00 1.57 1.57 99 1016.8
20260502004259 54 63 0.0 1.0 0.00 1.57 1.57 99 1016.5
20260502003757 54 65 1.0 2.0 0.00 1.57 1.57 99 1016.6
20260502003254 54 53 0.0 2.0 0.00 1.57 1.57 99 1016.6
20260502002749 54 68 0.0 1.0 0.00 1.57 1.57 99 1016.6
20260502002247 54 82 1.0 2.0 0.00 1.57 1.57 99 1016.4
20260502001744 54 48 0.0 1.0 0.00 1.57 1.57 99 1016.3
20260502001242 54 58 0.0 2.0 0.00 1.57 1.57 99 1016.2
20260502000740 54 51 0.0 4.0 0.00 1.57 1.57 99 1016.1
20260502000240 54 51 0.0 4.0 0.00 1.57 1.57 99 1016.2
20260501235738 54 58 0.0 1.0 0.07 1.57 1.57 99 1016.6
20260501235234 55 5 1.0 2.0 0.00 1.56 1.56 99 1016.6
20260501234730 55 64 0.0 1.0 0.00 1.56 1.56 99 1016.4
20260501234227 55 13 0.0 2.0 0.00 1.56 1.56 99 1016.3
20260501233725 55 61 3.0 7.0 0.00 1.56 1.56 99 1016.3
20260501233223 55 57 0.0 2.0 0.05 1.56 1.56 99 1016.1
20260501232718 55 42 1.0 1.0 0.05 1.56 1.56 99 1015.8
20260501232216 55 31 1.0 2.0 0.07 1.55 1.55 99 1016.0
20260501231713 55 41 0.0 2.0 0.12 1.55 1.55 99 1015.9
20260501231211 55 11 1.0 1.0 0.12 1.54 1.54 99 1015.8
20260501230709 56 48 0.0 3.0 0.14 1.53 1.53 99 1015.5
20260501230207 56 32 2.0 2.0 0.12 1.52 1.52 99 1015.3
20260501225704 56 58 0.0 1.0 0.05 1.51 1.51 99 1015.5
20260501225201 56 51 1.0 3.0 0.00 1.50 1.50 99 1015.3
20260501224657 56 60 1.0 1.0 0.00 1.50 1.50 99 1015.2
20260501224155 56 53 1.0 4.0 0.07 1.50 1.50 99 1014.8
20260501223651 57 121 2.0 4.0 0.12 1.50 1.50 99 1014.5
20260501223148 57 68 0.0 1.0 0.05 1.49 1.49 99 1013.7
20260501222644 57 72 1.0 3.0 0.07 1.48 1.48 99 1013.7
20260501222141 57 60 0.0 1.0 0.19 1.48 1.48 99 1014.1
20260501221638 57 57 0.0 1.0 0.12 1.46 1.46 99 1013.8
20260501221137 57 59 0.0 2.0 0.12 1.45 1.45 99 1013.6
20260501220633 57 56 0.0 1.0 0.07 1.44 1.44 99 1014.0